Wind_Speed
34 34 31 29 28 27 26 26 25 24 22 22 21 20 18 16 15 15 14 13 12 10 9 8 7 7 7 7 7 7 8 8 8 8 8 8 8 9 9 10 11 12
35 34 31 29 28 27 25 25 24 23 22 22 21 20 18 17 16 15 15 14 14 13 12 10 9 8 8 8 9 9 9 9 9 9 9 10 10 11 12 12 13 14
35 33 31 29 28 25 24 23 22 22 21 21 20 19 18 18 17 16 15 15 15 13 13 12 11 10 10 10 10 11 11 11 10 10 10 11 12 13 13 14 14 15
33 32 31 29 27 24 22 22 22 22 20 19 20 19 18 17 16 16 15 15 14 14 13 13 12 12 11 11 12 12 12 12 12 11 12 12 12 13 14 14 14 15
34 34 32 30 28 25 23 23 23 22 20 18 19 18 17 16 16 16 16 15 15 14 14 13 13 13 12 12 13 13 13 13 12 12 13 13 13 14 14 15 15 16
36 36 35 33 31 28 26 25 24 21 19 18 19 18 17 16 17 16 16 15 15 15 15 15 15 14 13 13 14 14 13 13 13 13 14 15 15 15 15 16 17 18
38 37 36 34 32 29 27 25 23 20 18 18 19 18 17 17 17 17 16 16 16 16 16 16 15 15 14 14 14 14 13 13 13 13 15 16 16 16 17 17 18 19
39 39 37 36 33 30 28 27 24 21 19 19 19 19 18 18 18 18 17 17 17 17 17 16 16 15 14 14 14 14 14 13 13 14 15 16 17 18 18 18 18 18
41 40 39 37 35 34 32 28 25 23 21 21 21 20 20 19 19 19 18 18 18 18 17 17 16 15 14 14 14 14 14 13 13 14 15 17 18 18 18 17 17 17
41 41 41 40 39 37 33 28 26 25 23 23 23 22 22 22 20 19 19 19 19 18 17 17 16 16 15 14 15 14 14 14 14 15 16 18 18 18 17 17 17 17
39 40 40 40 38 36 33 29 28 27 25 24 24 24 25 24 22 20 20 20 19 17 16 16 16 16 16 15 15 14 14 15 15 16 17 17 18 17 16 16 16 17
38 37 36 36 36 34 31 29 28 28 26 25 25 25 26 25 23 21 21 20 18 16 16 18 18 18 18 17 16 16 16 16 16 17 17 17 18 18 17 17 18 18
34 34 35 37 36 32 29 29 29 29 26 24 24 25 26 26 24 22 21 19 18 17 18 19 20 20 19 18 17 17 17 17 18 18 18 18 19 19 19 19 19 19
41 41 40 38 32 28 27 28 28 27 23 21 24 27 26 25 24 22 20 19 17 17 18 19 20 20 19 19 19 18 18 19 19 19 19 20 20 21 21 20 20 20
39 35 29 24 19 18 18 17 18 21 21 22 25 28 26 24 22 20 18 17 17 17 18 19 20 20 20 19 19 19 19 20 20 19 20 21 22 22 21 21 21 21
26 21 17 16 17 15 11 7 9 14 18 21 24 27 26 22 21 19 17 16 17 18 19 20 21 22 21 20 19 19 20 21 21 22 22 22 23 23 23 23 21 21
17 14 13 15 19 21 19 15 14 17 17 16 18 22 22 20 20 18 16 17 19 19 20 21 23 23 21 20 20 21 22 22 23 25 25 25 26 25 25 24 22 21
17 16 14 13 17 24 27 26 25 22 18 16 16 17 16 17 18 18 17 20 22 22 22 23 24 23 22 22 23 23 23 24 25 27 29 30 29 27 25 23 22 22
22 20 19 16 17 24 28 28 26 20 17 19 19 16 16 18 19 19 21 25 25 24 24 25 24 23 22 23 24 24 24 25 26 29 31 32 31 28 24 22 21 22
24 23 21 18 22 28 28 24 20 16 16 18 19 17 16 19 22 22 25 27 27 26 26 26 25 23 23 24 26 27 26 26 28 30 31 31 30 26 22 20 21 21
26 25 24 24 26 27 23 19 16 15 16 17 18 18 16 19 23 25 25 26 27 27 26 27 26 24 24 26 27 29 29 29 30 31 30 29 26 23 21 20 21 20
30 29 28 26 21 16 14 15 14 15 18 19 19 19 19 22 25 25 24 25 26 27 26 27 27 26 25 25 26 29 30 30 30 29 27 24 21 20 20 20 19 17
29 27 24 18 10 7 9 12 15 18 20 22 21 22 23 23 21 20 21 22 23 23 23 24 23 21 19 20 23 26 27 27 27 26 24 20 18 18 20 19 16 14
28 26 21 13 11 14 16 19 25 26 23 22 24 25 23 17 14 15 17 18 20 20 18 15 13 11 11 15 18 20 23 26 25 22 19 16 16 18 19 17 14 12
30 27 21 16 15 15 16 21 24 22 17 16 18 18 14 11 11 12 13 15 16 15 10 7 8 9 10 13 16 19 24 25 22 18 16 15 16 18 18 16 13 11
30 28 24 20 16 11 13 17 16 11 6 5 6 7 7 8 8 7 9 9 8 8 7 6 11 14 16 18 22 25 25 21 17 15 15 15 16 17 16 14 13 11
Wind_Direction
224 222 222 222 219 216 213 209 208 209 210 210 208 206 208 211 212 209 208 210 216 217 213 211 213 222 232 238 245 250 255 265 271 275 274 270 270 267 264 262 263 266
222 220 220 218 213 212 213 212 212 213 212 212 211 212 213 214 212 211 211 213 218 222 222 220 220 229 239 247 257 260 263 271 274 275 276 275 276 276 275 274 271 271
220 218 216 213 211 212 213 214 215 216 215 214 213 214 214 213 214 215 214 214 220 225 225 226 229 237 245 254 262 263 265 270 272 275 278 277 277 277 279 280 278 275
218 216 215 214 215 216 215 215 216 216 216 216 215 215 215 215 217 217 215 218 226 230 229 231 236 242 250 257 261 262 264 269 272 278 281 280 279 280 284 287 286 283
219 217 216 216 216 216 215 216 216 216 218 219 216 214 215 217 218 217 217 223 229 232 233 238 242 247 254 258 260 260 263 268 271 276 280 282 282 284 288 291 292 291
219 218 217 217 216 214 213 215 216 219 224 221 215 214 217 219 220 219 220 224 228 232 236 243 246 250 256 259 260 260 262 267 270 273 280 285 286 285 287 288 289 292
219 218 217 218 215 213 213 213 214 220 226 222 215 215 218 219 220 220 220 222 226 233 240 245 250 254 258 257 256 257 260 264 266 272 280 284 286 284 282 282 286 291
219 219 219 217 213 214 215 213 214 218 220 218 215 216 217 218 219 218 219 222 225 233 241 247 252 255 254 253 254 256 258 260 266 275 281 283 282 281 281 282 287 291
219 219 219 216 213 214 214 212 213 214 214 214 214 214 214 214 216 217 219 223 227 234 241 247 253 253 251 252 255 256 257 260 270 279 281 280 278 281 283 285 287 288
219 218 216 215 214 214 211 212 215 214 212 213 213 211 211 211 213 216 220 225 228 233 241 247 251 252 253 254 254 254 258 266 275 278 277 277 278 282 284 285 286 284
220 219 217 215 214 212 210 211 215 215 214 214 214 212 210 210 211 214 220 224 226 232 241 247 251 254 256 256 255 257 263 269 274 275 274 276 279 282 282 282 285 285
219 219 218 216 215 214 214 214 215 217 218 217 217 216 213 212 211 213 218 221 225 233 241 248 253 256 258 258 258 260 265 269 272 272 273 275 276 276 276 278 281 285
221 221 221 221 219 216 217 220 218 217 219 223 226 223 218 215 212 212 217 220 224 234 242 249 254 256 257 257 258 261 266 269 271 272 273 273 273 272 273 276 280 284
220 221 220 222 221 215 218 223 221 217 219 231 238 234 226 221 217 215 216 218 225 235 243 250 253 254 255 255 258 263 267 270 271 274 276 274 272 273 274 276 279 282
219 219 216 213 207 201 206 218 225 224 225 233 241 240 236 229 223 221 218 218 226 238 245 250 251 251 253 255 259 265 269 273 277 279 280 277 275 275 276 276 278 280
223 214 199 184 172 173 187 216 256 254 244 239 240 242 241 235 232 231 227 225 233 242 247 250 249 249 252 257 262 268 274 278 281 283 282 280 277 277 276 278 279 280
203 167 155 157 166 184 201 217 241 255 252 245 246 248 245 240 238 238 235 236 242 247 251 252 250 250 254 261 266 271 276 279 281 283 282 279 278 278 278 281 282 280
170 149 143 145 171 197 208 212 221 230 229 227 243 260 263 254 247 244 245 248 250 252 255 255 255 256 259 264 269 272 275 278 279 280 280 279 277 277 279 283 283 280
172 171 166 165 187 203 207 212 216 217 213 216 229 251 268 267 259 253 251 251 253 257 259 260 261 263 266 268 270 273 274 275 277 277 277 277 276 276 279 283 282 278
174 178 176 186 200 197 196 204 208 209 213 216 222 235 253 262 265 264 259 255 257 260 262 262 264 268 273 274 274 277 277 276 276 276 275 275 274 274 278 280 278 275
176 182 188 196 197 190 189 192 193 204 213 213 216 225 239 258 269 272 270 265 264 263 262 264 268 272 277 279 280 281 281 280 279 277 276 275 274 273 277 278 275 272
175 178 180 181 179 175 174 174 180 197 205 205 207 212 229 254 267 271 273 273 269 267 265 265 271 276 278 280 285 287 285 282 281 279 277 275 273 274 277 277 275 273
166 162 154 151 162 185 191 199 213 215 209 204 203 208 227 248 263 271 278 279 273 271 271 272 276 283 286 286 291 294 292 286 281 278 275 273 272 275 278 278 277 274
157 152 144 153 194 210 212 221 227 224 216 210 208 216 233 254 278 290 290 284 276 273 277 285 296 307 306 296 295 298 295 288 281 276 271 270 274 277 280 281 279 275
154 150 151 168 183 189 202 219 229 231 227 223 223 230 252 286 303 301 294 285 274 262 256 280 307 316 313 297 289 291 290 284 276 269 266 271 278 280 282 284 281 278
150 150 155 162 161 169 203 222 241 252 241 239 250 259 289 312 317 312 297 280 251 220 219 263 290 298 298 284 275 278 282 277 266 263 269 276 280 283 285 285 283 285
Height
800 802 804 806 808 809 811 813 815 817 819 821 822 824 825 827 828 828 829 830 831 832 833 834 834 834 835 835 836 836 837 837 837 837 837 837 838 838 838 838 838 838
797 799 801 803 805 807 809 811 813 814 816 818 820 822 823 825 826 826 828 829 830 830 831 832 832 833 834 834 835 835 835 836 836 836 836 836 836 836 836 837 836 836
795 797 799 801 803 805 807 809 811 812 814 816 818 820 822 823 824 825 826 827 828 829 830 830 831 831 832 833 833 834 834 834 835 835 835 835 835 835 835 835 835 835
793 795 796 798 800 803 805 807 809 811 812 814 816 819 820 821 823 823 824 826 826 827 828 829 829 830 831 831 832 832 833 833 833 834 834 834 834 834 834 834 833 833
790 791 793 795 797 799 801 803 806 808 810 812 814 817 819 820 821 822 823 824 825 826 827 828 828 828 829 830 830 831 831 832 832 832 832 832 833 833 833 832 831 831
785 787 788 790 792 794 797 799 802 805 808 811 813 815 817 819 820 821 822 822 823 825 826 826 827 827 828 828 828 829 829 830 830 830 831 831 831 831 831 830 829 829
781 783 785 787 790 792 793 795 799 803 806 810 812 814 816 817 819 820 820 821 822 823 825 825 826 826 826 826 827 827 828 828 828 828 829 829 830 830 829 829 828 827
778 780 782 784 787 789 791 792 795 798 803 808 810 812 814 815 817 818 818 819 820 822 823 824 825 825 825 825 825 825 826 826 826 826 827 827 827 827 827 827 826 825
774 777 778 780 782 784 786 788 791 794 798 803 806 809 811 812 814 815 816 818 819 820 822 823 824 824 823 823 823 824 824 824 824 824 824 825 825 825 825 825 824 823
771 772 773 774 776 779 782 786 790 793 795 798 802 804 806 808 810 812 814 815 816 818 820 821 822 822 822 822 821 822 822 822 822 822 822 823 823 823 823 823 822 821
769 770 770 771 774 777 780 783 788 791 793 796 799 800 802 804 806 809 811 812 813 815 817 819 820 820 820 820 820 820 820 820 820 820 821 821 821 821 821 820 820 819
767 769 770 772 774 777 781 784 787 790 793 796 798 799 800 801 803 805 807 809 811 813 815 817 818 818 818 818 818 818 818 818 818 818 818 819 819 819 818 818 818 817
768 768 769 771 774 778 784 788 789 791 795 797 799 799 799 799 800 801 803 805 808 810 813 815 815 816 816 816 817 817 817 817 816 816 816 816 816 816 816 816 815 814
761 762 764 770 776 781 786 790 790 792 794 798 801 801 799 799 798 799 800 802 804 807 810 812 813 813 814 814 815 815 815 815 815 815 814 814 814 814 813 813 812 811
756 759 765 773 779 783 788 792 794 795 794 795 799 802 801 799 799 799 799 800 802 804 807 809 810 811 812 812 813 813 813 813 813 813 812 812 812 811 810 809 809 808
758 762 766 770 774 781 787 792 795 798 797 796 799 801 801 799 799 799 798 798 800 802 805 807 808 808 809 810 811 811 811 811 811 810 810 810 809 808 807 806 806 805
758 762 765 766 769 776 782 784 789 794 797 798 800 800 799 798 799 799 798 798 799 801 803 804 805 806 807 808 808 809 809 809 808 808 808 807 806 805 804 803 803 803
755 759 761 764 768 773 775 777 781 785 789 792 794 795 796 796 797 797 796 797 798 799 800 802 803 804 805 806 806 806 806 806 806 805 804 804 803 802 801 801 801 800
749 752 753 757 763 767 770 773 776 778 780 782 783 787 790 792 794 794 794 795 796 797 798 799 800 801 802 803 803 803 803 803 802 802 801 800 800 799 799 798 798 797
746 748 750 754 758 761 764 768 770 772 773 775 776 780 785 787 789 791 792 793 794 795 796 797 797 798 799 800 800 799 800 800 799 798 797 796 796 796 796 796 795 795
746 748 749 751 755 758 760 762 764 766 769 771 773 777 782 784 786 787 789 790 792 793 794 794 795 796 796 796 796 796 797 797 796 795 794 793 793 793 793 793 793 793
745 747 749 753 758 761 760 761 763 764 766 768 771 774 778 781 782 784 785 788 790 791 791 792 792 793 793 793 793 794 794 793 793 792 791 790 790 790 791 791 791 791
748 751 755 761 765 765 764 764 767 766 765 766 769 772 775 778 780 781 783 786 788 789 789 789 790 790 791 791 791 791 791 791 790 790 788 788 788 788 789 789 790 789
751 754 759 763 764 763 762 765 767 767 766 767 769 771 773 776 778 779 782 784 785 787 788 789 789 789 789 789 790 790 790 789 788 787 786 786 786 786 787 787 788 788
749 753 757 759 759 759 761 764 766 768 769 771 772 773 774 775 776 777 778 780 782 784 785 786 788 788 788 790 790 790 789 788 786 785 784 784 784 785 785 785 786 786
746 747 749 751 752 753 754 758 764 767 770 772 772 773 773 773 773 774 775 777 779 781 782 783 785 786 787 789 790 788 787 785 784 783 782 782 782 783 783 784 784 784